This is the latest recevied weather packets stored in our database for station/object KO4APQ. If no packets are shown the sender has not sent any weather packets the latest 10 day(s).
| Time | Temp. | Humidity | Pressure | Rain* | Wind** | Luminosity | Snow |
|---|---|---|---|---|---|---|---|
| 1778116118 | 17.78° C | 94% | 1014.7 hPa | 3.05 mm | - | 0 W/m² | - |
| 1778115814 | 17.78° C | 94% | 1015 hPa | 6.1 mm | - | 0 W/m² | - |
| 1778115511 | 18.33° C | 94% | 1014.3 hPa | 3.05 mm | - | 0 W/m² | - |
| 1778115208 | 18.33° C | 94% | 1014.6 hPa | 0 mm | - | 0 W/m² | - |
| 1778114904 | 18.33° C | 94% | 1014.9 hPa | 3.05 mm | - | 0 W/m² | - |
| 1778114602 | 18.33° C | 94% | 1014.8 hPa | 10.67 mm | - | 0 W/m² | - |
| 1778114299 | 18.33° C | 93% | 1014.7 hPa | 33.53 mm | - | 0 W/m² | - |
| 1778113994 | 18.33° C | 93% | 1015 hPa | 65.53 mm | - | 0 W/m² | - |
| 1778113689 | 18.89° C | 92% | 1015.4 hPa | 71.37 mm | - | 0 W/m² | - |
| 1778113386 | 18.89° C | 91% | 1015.8 hPa | 26.92 mm | - | 0 W/m² | - |
| 1778113083 | 18.89° C | 91% | 1015.2 hPa | 1.27 mm | - | 0 W/m² | - |
| 1778112780 | 18.89° C | 90% | 1010.7 hPa | 0 mm | - | 0 W/m² | - |
| 1778112476 | 18.89° C | 90% | 1011.9 hPa | 0 mm | - | 0 W/m² | - |
| 1778112172 | 18.89° C | 90% | 1011.2 hPa | 0 mm | - | 1 W/m² | - |
| 1778111869 | 18.89° C | 89% | 1011.5 hPa | 0 mm | - | 3 W/m² | - |
| 1778111564 | 18.89° C | 89% | 1012.1 hPa | 0 mm | - | 5 W/m² | - |
| 1778111262 | 18.89° C | 89% | 1012.1 hPa | 0 mm | - | 5 W/m² | - |
| 1778110959 | 19.44° C | 88% | 1012.7 hPa | 0 mm | - | 3 W/m² | - |
| 1778110657 | 19.44° C | 88% | 1012.7 hPa | 0 mm | - | 6 W/m² | - |
| 1778110353 | 19.44° C | 88% | 1013.1 hPa | 0 mm | - | 10 W/m² | - |
| 1778110050 | 19.44° C | 87% | 1013 hPa | 0 mm | - | 6 W/m² | - |
| 1778109750 | 19.44° C | 86% | 1013 hPa | 0 mm | - | 12 W/m² | - |
| 1778109448 | 20° C | 85% | 1013.5 hPa | 0 mm | - | 4 W/m² | - |
| 1778109146 | 20° C | 85% | 1013.5 hPa | 0 mm | - | 14 W/m² | - |
| 1778108842 | 20.56° C | 83% | 1013.8 hPa | 0 mm | - | 6 W/m² | - |
* Rain latest hour (hover to see other rain measurements)
** Current wind speed in m/s (hover to see current wind gust speed)